[[{"header":{"parameterUnit":"m.s-1","parameterCategory":1,"la1":30.2991,"la2":30.254,"lo1":-89.0895,"lo2":-89.0444,"dy":0.0017,"dx":0.0017,"nx":28,"ny":28,"refTime":"2023-08-15T21:00:00:Z","depth":0,"parameterNumber":2,"parameterNumberName":"U-component_of_WINDS"},"data":[0,0,0,0,0,0,0,0,0,0,0,0,0,0,0,0,0,0,0,0,0,0,0,0,0,0,0,0,0,0,0,0,0,0,0,0,0,0,0,0,0,0,0,0,0,0,0,0,0,0,0,0,0,0,0,0,0,0,0.1461,0.1462,0,0.152,0.1521,0.1521,0.1547,0.1547,0.1547,0.1547,0.1608,0.161,0.1612,0,0,0,0,0,0,0,0,0,0,0,0,0,0.1371,0.1373,0.1461,0.1462,0.1463,0.152,0.1521,0.1521,0.1547,0.1547,0.1547,0.1547,0.1608,0.161,0.1612,0,0,0,0,0,0,0,0,0,0,0,0,0,0.1418,0.1373,0.1461,0.1482,0.1485,0.152,0.1521,0.1522,0.1547,0.1547,0.1547,0.1547,0.1607,0.1609,0.1612,0.163,0,0,0.162,0.1621,0,0,0,0,0,0,0,0,0.1415,0.1421,0.1479,0.1481,0.1484,0.1526,0.1511,0.1558,0.1547,0.1524,0.1547,0.1547,0.1581,0.1586,0.1597,0.1633,0.1635,0.162,0.1621,0.1623,0.1623,0,0,0,0,0,0,0,0.1412,0.1419,0.1484,0.1479,0.1483,0.1489,0.1496,0.152,0.1552,0.1526,0.1528,0.1534,0.1583,0.1595,0.1599,0.1636,0.162,0.1622,0.1624,0.1625,0.1689,0.1689,0,0,0,0,0,0,0.1405,0.1416,0.1482,0.1486,0.1449,0.1491,0.1498,0.1513,0.1552,0.1558,0.1534,0.1535,0.159,0.1596,0.1601,0.1624,0.1623,0.1625,0.1626,0.1689,0.1689,0.1689,0,0,0,0,0,0,0.1403,0.1411,0.148,0.1452,0.1461,0.1492,0.1509,0.1514,0.1526,0.1559,0.1565,0.1541,0.159,0.1597,0.1622,0.1626,0.1626,0.1628,0.1688,0.1689,0.1689,0.167,0,0,0,0,0,0,0.1401,0.141,0.1417,0.1452,0.1462,0.15,0.1509,0.1515,0.153,0.1532,0.1566,0.1572,0.1591,0.1618,0.1625,0.163,0.163,0.1688,0.1688,0.1689,0.1671,0.167,0.1669,0,0,0,0,0,0.1397,0.141,0.1418,0.1425,0.1472,0.1501,0.1507,0.1528,0.153,0.1538,0.1559,0.1571,0.1625,0.1621,0.1628,0.1634,0.1688,0.1688,0.1689,0.1671,0.167,0.1669,0,0,0,0,0,0,0.1376,0.1415,0.1424,0.1448,0.1471,0.1505,0.1515,0.1527,0.1549,0.155,0.1576,0.1583,0.1606,0.1623,0.1617,0.1653,0.1657,0.1659,0.1641,0.1641,0.164,0.1636,0.1633,0,0,0,0,0,0.1374,0.1394,0.1427,0.1446,0.1456,0.1484,0.1497,0.1511,0.1536,0.1546,0.1568,0.1592,0.1614,0.1628,0.1651,0.1673,0.1681,0.1681,0.168,0.1679,0.1681,0.1693,0.1694,0.169,0.169,0.169,0,0,0.1371,0.1395,0.1406,0.1442,0.1461,0.1481,0.1492,0.1512,0.1527,0.1549,0.1574,0.1591,0.1619,0.1642,0.1654,0.1657,0.1683,0.168,0.1679,0.1681,0.1694,0.1694,0.1694,0.169,0.169,0.169,0,0,0.1375,0.1395,0.1412,0.143,0.1459,0.1477,0.1481,0.1513,0.1525,0.155,0.1567,0.1585,0.1623,0.1642,0.1656,0.1666,0.1678,0.1672,0.1669,0.168,0.1681,0.1681,0.1684,0.1685,0.1674,0.1674,0.1674,0,0.1367,0.1397,0.1419,0.1439,0.1454,0.1474,0.1491,0.1508,0.1543,0.1553,0.1555,0.1603,0.1623,0.1651,0.1653,0.1664,0.1669,0.1669,0.1679,0.1679,0.168,0.1683,0.1684,0.1673,0.1673,0.1673,0.1673,0,0.1386,0.1407,0.1417,0.1449,0.1465,0.1484,0.1508,0.1522,0.1535,0.1552,0.1577,0.1602,0.1629,0.1637,0.1649,0.1666,0.1667,0.1674,0.1679,0.1679,0.1683,0.1684,0.1671,0.1672,0.1672,0.1672,0,0,0.1379,0.1422,0.1425,0.144,0.1472,0.1489,0.1508,0.1534,0.1545,0.1568,0.1584,0.1615,0.1622,0.1638,0.1653,0.1663,0.1668,0.1669,0.167,0.1668,0.1688,0.1682,0.1683,0.1676,0.1677,0.1677,0.1685,0,0.1387,0.1421,0.1441,0.1467,0.1487,0.1505,0.1521,0.1543,0.1559,0.1578,0.1596,0.1618,0.1625,0.1634,0.1645,0.1665,0.1673,0.1665,0.1692,0.1692,0.1684,0.1685,0.168,0.1687,0.1687,0.1687,0.1687,0,0.1401,0.1423,0.1451,0.148,0.1489,0.1503,0.1528,0.1546,0.157,0.1582,0.1599,0.1614,0.1634,0.1637,0.1665,0.166,0.1672,0.1683,0.1684,0.1687,0.169,0.1689,0.1689,0.169,0.169,0.1689,0.1689,0,0.1393,0.1429,0.145,0.1462,0.1497,0.1507,0.1522,0.1546,0.156,0.1582,0.1591,0.1615,0.1629,0.1647,0.1668,0.1668,0.1694,0.1698,0.1703,0.1703,0.1708,0.1708,0.1711,0.1716,0.1716,0.1716,0.1716,0,0.14,0.1416,0.1447,0.146,0.1479,0.1501,0.1519,0.1535,0.1556,0.1573,0.159,0.1605,0.1632,0.165,0.1666,0.1687,0.1693,0.1703,0.1707,0.1701,0.17,0.1709,0.171,0.1716,0.1716,0.1716,0.1716,0,0.1394,0.1415,0.1439,0.147,0.1478,0.149,0.1517,0.153,0.1547,0.1567,0.1573,0.16,0.1622,0.1645,0.1675,0.1686,0.1706,0.1712,0.1698,0.17,0.1704,0.1703,0.1713,0.1716,0.1719,0.1719,0.1719,0,0.1397,0.141,0.1441,0.1453,0.1468,0.1487,0.1501,0.1523,0.1537,0.1566,0.1575,0.1599,0.1619,0.1654,0.1676,0.1699,0.1705,0.1707,0.1709,0.1702,0.1705,0.1704,0.1705,0.1707,0.1706,0.1706,0.1706,0,0.14,0.1409,0.1429,0.1452,0.1468,0.1488,0.1508,0.1517,0.1543,0.1558,0.158,0.1596,0.1626,0.1649,0.1674,0.169,0.1702,0.1705,0.1708,0.1702,0.1693,0.1698,0.1696,0.1705,0.1705,0.1705,0.1705,0.1705,0.1398,0.141,0.1434,0.1455,0.1472,0.149,0.1504,0.1522,0.1541,0.1568,0.1579,0.1602,0.1626,0.1661,0.1676,0.1694,0.1698,0.1701,0.1702,0.1703,0.1701,0.169,0.1699,0.1699,0.1699,0.1699,0.1699,0,0.1402,0.1418,0.1437,0.1464,0.148,0.149,0.1512,0.1525,0.1545,0.1566,0.1585,0.161,0.1633,0.1656,0.1679,0.1689,0.1696,0.1695,0.1694,0.1698,0.1697,0.1692,0.1689,0.1689,0.1689,0.1689,0.1689,0.1689,0.1406,0.1426,0.1438,0.1467,0.1483,0.1505,0.1517,0.1534,0.155,0.1578,0.1596,0.1611,0.1633,0.1658,0.1679,0.1685,0.1693,0.169,0.1698,0.1697,0.1698,0.1699,0.1694,0.1692,0.1692,0.1698,0.1698,0.1698]},{"header":{"parameterUnit":"m.s-1","parameterCategory":1,"la1":30.2991,"la2":30.254,"lo1":-89.0895,"lo2":-89.0444,"dy":0.0017,"dx":0.0017,"nx":28,"ny":28,"refTime":"2023-08-15T21:00:00:Z","depth":0,"parameterNumber":3,"parameterNumberName":"V-component_of_WINDS"},"data":[0,0,0,0,0,0,0,0,0,0,0,0,0,0,0,0,0,0,0,0,0,0,0,0,0,0,0,0,0,0,0,0,0,0,0,0,0,0,0,0,0,0,0,0,0,0,0,0,0,0,0,0,0,0,0,0,0,0,3.2277,3.2276,0,3.2202,3.2202,3.2201,3.2096,3.2094,3.2092,3.209,3.2014,3.2014,3.2014,0,0,0,0,0,0,0,0,0,0,0,0,0,3.2328,3.2328,3.2277,3.2276,3.2275,3.2203,3.2202,3.2201,3.2096,3.2094,3.2092,3.209,3.2014,3.2014,3.2014,0,0,0,0,0,0,0,0,0,0,0,0,0,3.2285,3.2328,3.2277,3.2214,3.2208,3.2203,3.2202,3.22,3.2096,3.2094,3.2091,3.2088,3.2014,3.2014,3.2013,3.2064,0,0,3.2012,3.2012,0,0,0,0,0,0,0,0,3.2288,3.2284,3.2224,3.2218,3.2211,3.2156,3.2192,3.2155,3.2097,3.2139,3.209,3.2087,3.2063,3.2059,3.2051,3.2061,3.2057,3.2012,3.2011,3.2011,3.2011,0,0,0,0,0,0,0,3.2291,3.2286,3.2247,3.2224,3.2216,3.219,3.218,3.2184,3.2117,3.2135,3.2127,3.212,3.2059,3.2051,3.2048,3.2056,3.2012,3.2011,3.2011,3.2011,3.2103,3.2105,0,0,0,0,0,0,3.2303,3.2289,3.225,3.2245,3.2244,3.2191,3.2181,3.2176,3.2117,3.2105,3.2122,3.2115,3.2054,3.2049,3.2045,3.2099,3.2011,3.2011,3.201,3.21,3.2103,3.2106,0,0,0,0,0,0,3.2305,3.2301,3.2253,3.2265,3.2257,3.2193,3.2189,3.2176,3.2168,3.2107,3.2095,3.2126,3.2051,3.2046,3.206,3.2095,3.2011,3.201,3.2097,3.2101,3.2105,3.2209,0,0,0,0,0,0,3.2307,3.2302,3.2321,3.2266,3.2257,3.2269,3.2191,3.2177,3.2167,3.2158,3.2108,3.2097,3.2049,3.2061,3.2059,3.2093,3.201,3.2093,3.2099,3.2104,3.2202,3.2216,3.2229,0,0,0,0,0,3.2309,3.2353,3.2322,3.2318,3.2279,3.2272,3.2266,3.221,3.2171,3.2189,3.215,3.2098,3.2092,3.2064,3.2061,3.2095,3.2091,3.2097,3.2103,3.2196,3.2214,3.2228,0,0,0,0,0,0,3.2413,3.2345,3.231,3.2338,3.2311,3.2254,3.2275,3.223,3.2214,3.2205,3.2136,3.2126,3.2149,3.2123,3.2093,3.214,3.2084,3.209,3.2156,3.2171,3.2184,3.2189,3.2009,0,0,0,0,0,3.244,3.244,3.238,3.241,3.2399,3.234,3.2334,3.2293,3.2263,3.2251,3.2213,3.2186,3.2177,3.2173,3.2162,3.2199,3.2186,3.222,3.2234,3.2245,3.225,3.2266,3.2281,3.2127,3.2127,3.2127,0,0,3.2494,3.2457,3.2461,3.243,3.2405,3.2406,3.2331,3.2335,3.2335,3.2252,3.2262,3.2234,3.2199,3.2224,3.2233,3.2203,3.229,3.2253,3.2262,3.2261,3.2274,3.2289,3.2302,3.2131,3.213,3.213,0,0,3.2593,3.2566,3.2587,3.2563,3.2526,3.2486,3.2492,3.2441,3.2418,3.2428,3.2365,3.2365,3.2352,3.2329,3.2316,3.2407,3.2359,3.2405,3.2473,3.249,3.2502,3.2512,3.2543,3.2555,3.2411,3.2411,3.2412,0,3.2665,3.2664,3.2604,3.2612,3.26,3.2525,3.2546,3.2526,3.2488,3.2481,3.2448,3.243,3.2401,3.242,3.2442,3.2434,3.2438,3.241,3.2505,3.2515,3.2523,3.2552,3.2564,3.2417,3.2417,3.2416,3.2415,0,3.2754,3.2755,3.2777,3.2741,3.2732,3.2747,3.2688,3.2686,3.2647,3.261,3.2621,3.2584,3.2563,3.2565,3.2526,3.2578,3.256,3.2518,3.2459,3.2545,3.2571,3.2581,3.2425,3.2423,3.2422,3.242,0,0,3.2916,3.2846,3.2855,3.2838,3.2791,3.279,3.2802,3.2782,3.2781,3.2757,3.2764,3.2755,3.2715,3.27,3.2659,3.2674,3.2746,3.2628,3.2626,3.265,3.2799,3.2831,3.2845,3.2715,3.2717,3.2718,3.2802,0,3.3004,3.302,3.2966,3.2995,3.2994,3.2923,3.2933,3.2905,3.2872,3.2866,3.2829,3.2824,3.2772,3.2762,3.2774,3.2735,3.2775,3.2728,3.272,3.272,3.2729,3.2858,3.2891,3.2972,3.2812,3.2813,3.2814,0,3.311,3.3091,3.312,3.3071,3.3069,3.3079,3.3056,3.3052,3.3019,3.2993,3.2977,3.2929,3.2936,3.2882,3.289,3.286,3.2853,3.2834,3.2836,3.2831,3.2772,3.2856,3.2996,3.3008,3.283,3.2829,3.2828,0,3.3223,3.3205,3.322,3.3207,3.3151,3.316,3.3137,3.3101,3.3092,3.3073,3.3066,3.3048,3.3038,3.3024,3.2972,3.2937,3.2986,3.2928,3.2965,3.2966,3.2977,3.2977,3.3117,3.2976,3.2976,3.2975,3.2975,0,3.3327,3.3347,3.327,3.3279,3.3299,3.3237,3.3259,3.3229,3.3198,3.32,3.3138,3.3141,3.3072,3.3067,3.3027,3.3039,3.3035,3.3014,3.3003,3.3019,3.3022,3.3013,3.3005,3.2979,3.2978,3.2977,3.2977,0,3.3456,3.3405,3.3416,3.3362,3.3349,3.3367,3.332,3.3326,3.3289,3.3292,3.3289,3.3231,3.3222,3.3169,3.3148,3.312,3.3147,3.3125,3.3158,3.315,3.319,3.3186,3.3328,3.3342,3.3194,3.3196,3.3197,0,3.3524,3.3538,3.3486,3.3483,3.3462,3.3458,3.3449,3.3389,3.3382,3.3345,3.3356,3.3342,3.3327,3.3316,3.3272,3.3255,3.3231,3.3282,3.3228,3.3244,3.323,3.323,3.323,3.3293,3.3295,3.3297,3.3298,0,3.3651,3.3626,3.3615,3.3595,3.3586,3.3568,3.3546,3.3547,3.348,3.3475,3.3465,3.3454,3.3433,3.3419,3.3395,3.3371,3.3323,3.3316,3.3323,3.3339,3.3356,3.3346,3.3188,3.3312,3.3311,3.331,3.3309,3.3308,3.3751,3.376,3.3724,3.3714,3.3691,3.3672,3.3675,3.3638,3.3629,3.3606,3.3572,3.3567,3.3533,3.3495,3.3475,3.347,3.3442,3.3454,3.3456,3.3459,3.3467,3.3359,3.3465,3.3465,3.3464,3.3464,3.3464,0,3.3873,3.3847,3.3839,3.381,3.3802,3.3758,3.3732,3.3728,3.3724,3.3697,3.3684,3.3672,3.3659,3.3614,3.3596,3.36,3.3578,3.3597,3.3595,3.359,3.3493,3.3488,3.3615,3.3615,3.3615,3.3615,3.3615,3.3615,3.3936,3.3948,3.3918,3.3918,3.3891,3.3886,3.3874,3.3856,3.3834,3.3824,3.3812,3.3783,3.3749,3.3727,3.3713,3.37,3.3696,3.3722,3.3702,3.3612,3.3597,3.3583,3.3578,3.3722,3.3722,3.3799,3.38,3.38]}]]